map of YHU home
Great Circle Mapper logo
YHU - Airport
Location
City:  Montréal, Québec, Canada
Name:St. Hubert
ICAO / IATA:CYHU / YHU

Details
Type:Airport (Airfield)
Use:Public/Civil, International (customs port of entry)
Latitude:45°31'03"N (45.517500)
Longitude:73°25'01"W (-73.416943)
Datum:WGS 1984
Elevation:90 ft (27 m)
Variation:14.70°W (WMM2015 magnetic declination)
0.07° annual change
Runways:3
Longest:7840 × 150 ft (2390 × 45.5 m), paved

Time
Time Zone:UTC-5 (DST-4)
Local Time:

Weather
METAR:CYHU 310000Z AUTO 32012G18KT 9SM FEW039 SCT110 BKN190 M11/M17 A3007 RMK SLP186
TAF:CYHU 302338Z 3100/3124 31012KT P6SM BKN040
FM310900 28010KT P6SM FEW040
BECMG 3117/3119 27015KT
RMK FCST BASED ON AUTO OBS. NXT FCST BY 310600Z

Related Locations
Nearby:
Farthest:MGV: 11515 mi / 18531 km
Margaret River, WA, AU

Find:

   beyond  
but within

Other Information
Maps:
NOTAMs:
Links:
Sources:

  
flag of Canada
flag of Québec
flag of Montréal
  

Airport Diagram

Airport diagram for YHU

Airport diagram PDF

Sectional Chart

Flight Planning
at skyvector.com

Satellite Image

Google Maps Satellite View

 

Copyright © 2004-2015 Karl L. Swartz. All rights reserved.
The Great Circle Mapper name and logo are trademarks of the Great Circle Mapper.
All other trademarks mentioned herein belong to their respective owners.
Please see credits for attibutions and further copyright information.

  Follow gcmap on Facebook Follow gcmap on Twitter

hCard Microformat

Geo Microformat